DW7087 Weather Reports


time (UTC)temp
C
wind
direction
speed
KPH
gust
KPH
rain 1hr
cm
rain 24hr
cm
rain mn
cm
humidity
%
barometer
mb
20260510161806 13 42 12.9 16.1 0.00 0.00 0.00 53 1014.9
20260510160906 13 53 12.9 16.1 0.00 0.00 0.00 54 1015.1
20260510160006 13 49 9.7 12.9 0.00 0.00 0.00 56 1015.1
20260510155406 13 45 12.9 22.5 0.00 0.00 0.00 55 1015.3
20260510154506 13 86 12.9 24.1 0.00 0.00 0.00 56 1015.4
20260510153606 13 48 11.3 16.1 0.00 0.00 0.00 56 1015.5
20260510152706 13 80 12.9 17.7 0.00 0.00 0.00 56 1015.5
20260510151806 13 56 12.9 17.7 0.00 0.00 0.00 57 1015.6
20260510150927 13 27 12.9 17.7 0.00 0.00 0.00 57 1015.6
20260510150006 13 334 16.1 24.1 0.00 0.00 0.00 57 1015.6
20260510145406 13 49 14.5 24.1 0.00 0.00 0.00 57 1015.7
20260510144527 13 21 14.5 20.9 0.00 0.00 0.00 58 1015.9
20260510143606 13 49 9.7 16.1 0.00 0.00 0.00 60 1015.9
20260510142706 13 35 14.5 20.9 0.00 0.00 0.00 59 1016.1
20260510141806 13 48 14.5 24.1 0.00 0.00 0.00 60 1016.1
20260510140906 13 36 12.9 17.7 0.00 0.00 0.00 60 1016.2
20260510140006 13 58 12.9 17.7 0.00 0.00 0.00 61 1016.2
20260510135406 13 48 16.1 22.5 0.00 0.00 0.00 60 1016.1
20260510134506 13 62 11.3 22.5 0.00 0.00 0.00 62 1016.2
20260510133606 13 43 12.9 20.9 0.00 0.00 0.00 62 1016.2
20260510132706 12 47 12.9 22.5 0.00 0.00 0.00 63 1016.2
20260510131806 12 34 14.5 33.8 0.00 0.00 0.00 62 1016.3
20260510130906 12 355 11.3 16.1 0.00 0.00 0.00 62 1016.4
20260510130027 12 62 12.9 24.1 0.00 0.00 0.00 63 1016.4
20260510125406 12 69 14.5 19.3 0.00 0.00 0.00 63 1016.5
20260510124506 12 59 11.3 17.7 0.00 0.00 0.00 64 1016.7
20260510123606 12 50 14.5 19.3 0.00 0.00 0.00 65 1016.7
20260510122727 12 53 11.3 16.1 0.00 0.00 0.00 66 1016.8
20260510121806 12 27 14.5 27.4 0.00 0.00 0.00 66 1016.8
20260510120906 12 22 11.3 17.7 0.00 0.00 0.00 65 1017.0
20260510120007 12 47 14.5 19.3 0.00 0.00 0.00 63 1016.9
20260510115406 13 61 14.5 17.7 0.00 0.00 0.00 63 1016.9
20260510114506 13 31 17.7 24.1 0.00 0.00 0.00 63 1016.9
20260510113627 13 78 16.1 25.7 0.00 0.00 0.00 63 1017.2
20260510112727 13 60 16.1 22.5 0.00 0.00 0.00 61 1017.2
20260510111827 14 43 16.1 22.5 0.00 0.00 0.00 60 1017.2
20260510110906 14 13 14.5 22.5 0.00 0.00 0.00 57 1017.2
20260510110006 15 76 17.7 27.4 0.00 0.00 0.00 59 1017.1
20260510105406 14 65 14.5 27.4 0.00 0.00 0.00 61 1017.2
20260510104527 14 52 16.1 27.4 0.00 0.00 0.00 60 1017.2
20260510103606 14 64 12.9 19.3 0.00 0.00 0.00 61 1017.2
20260510102727 14 52 19.3 24.1 0.00 0.00 0.00 61 1017.4
20260510101806 13 66 19.3 25.7 0.00 0.00 0.00 62 1017.4
20260510100906 13 27 17.7 32.2 0.00 0.00 0.00 62 1017.4
20260510100006 14 9 19.3 32.2 0.00 0.00 0.00 61 1017.4
20260510095406 14 58 16.1 24.1 0.00 0.00 0.00 61 1017.3
20260510094506 13 15 16.1 25.7 0.00 0.00 0.00 63 1017.3
20260510093606 13 58 16.1 35.4 0.00 0.00 0.00 63 1017.5
20260510092727 13 54 14.5 22.5 0.00 0.00 0.00 64 1017.7
20260510091806 12 59 16.1 25.7 0.00 0.00 0.00 66 1017.6
20260510090927 12 69 16.1 25.7 0.00 0.00 0.00 67 1017.6
20260510090006 12 53 16.1 32.2 0.00 0.00 0.00 68 1017.8
20260510085406 12 50 16.1 24.1 0.00 0.00 0.00 68 1017.8
20260510084506 12 53 16.1 24.1 0.00 0.00 0.00 68 1017.9
20260510083606 12 59 16.1 22.5 0.00 0.00 0.00 69 1018.0
20260510082706 12 53 11.3 22.5 0.00 0.00 0.00 70 1017.9
20260510081806 11 14 14.5 20.9 0.00 0.00 0.00 72 1018.0
20260510080906 11 59 11.3 17.7 0.00 0.00 0.00 72 1017.9
20260510080006 11 79 16.1 19.3 0.00 0.00 0.00 73 1018.0
20260510075406 11 75 14.5 19.3 0.00 0.00 0.00 73 1018.1
20260510074506 11 63 12.9 20.9 0.00 0.00 0.00 74 1018.0
20260510073627 11 30 12.9 22.5 0.00 0.00 0.00 74 1018.0
20260510072706 11 32 12.9 22.5 0.00 0.00 0.00 75 1017.9
20260510071827 11 21 14.5 19.3 0.00 0.00 0.00 77 1017.9
20260510070906 11 53 11.3 27.4 0.00 0.00 0.00 78 1018.0
20260510070027 10 42 11.3 27.4 0.00 0.00 0.00 78 1018.0
20260510065406 10 41 11.3 14.5 0.00 0.00 0.00 79 1017.8
20260510064506 10 26 16.1 25.7 0.00 0.00 0.00 79 1017.9
20260510063606 10 360 12.9 24.1 0.00 0.00 0.00 80 1017.8
20260510062706 10 63 11.3 16.1 0.00 0.00 0.00 80 1017.9
20260510061806 10 66 11.3 16.1 0.00 0.00 0.00 81 1017.7
20260510060906 10 61 12.9 19.3 0.00 0.00 0.00 81 1017.7
20260510060006 10 34 14.5 19.3 0.00 0.00 0.00 81 1017.6
20260510055406 10 51 11.3 17.7 0.00 0.00 0.00 81 1017.5
20260510054527 10 48 11.3 16.1 0.00 0.00 0.00 81 1017.6
20260510053606 10 69 8.0 12.9 0.00 0.00 0.00 82 1017.6
20260510052727 10 55 9.7 16.1 0.00 0.00 0.00 81 1017.7
20260510051806 10 28 12.9 19.3 0.00 0.00 0.00 81 1017.7
20260510050906 10 35 12.9 19.3 0.00 0.00 0.00 82 1017.7
20260510050006 10 61 11.3 17.7 0.00 0.00 0.00 82 1017.7
20260510045406 10 53 9.7 17.7 0.00 0.00 0.00 82 1017.7
20260510044506 10 9 9.7 12.9 0.00 0.00 0.00 82 1017.7
20260510043606 10 67 11.3 16.1 0.00 0.00 0.00 83 1017.6
20260510042727 10 38 9.7 17.7 0.00 0.00 0.00 82 1017.6
20260510041806 10 339 8.0 12.9 0.00 0.00 0.00 83 1017.6
20260510040906 10 28 8.0 12.9 0.00 0.00 0.00 82 1017.7
20260510040006 10 31 4.8 6.4 0.00 0.00 0.00 82 1017.7
20260510035406 10 42 6.4 9.7 0.00 0.00 0.00 82 1017.9
20260510034506 10 48 8.0 16.1 0.00 0.00 0.00 82 1017.9
20260510033606 9 45 9.7 17.7 0.00 0.00 0.00 82 1018.0
20260510032706 9 45 8.0 12.9 0.00 0.00 0.00 82 1018.0
20260510031806 9 60 8.0 12.9 0.00 0.00 0.00 82 1018.1
20260510030906 9 76 9.7 12.9 0.00 0.00 0.00 82 1018.0
20260510030027 9 51 9.7 12.9 0.00 0.00 0.00 82 1018.0
20260510025406 10 56 9.7 14.5 0.00 0.00 0.00 82 1018.1
20260510024506 10 41 8.0 12.9 0.00 0.00 0.00 82 1018.0
20260510023606 10 33 9.7 14.5 0.00 0.00 0.00 82 1018.2
20260510022706 10 29 8.0 12.9 0.00 0.00 0.00 83 1018.2
20260510021827 10 57 8.0 11.3 0.00 0.00 0.00 82 1018.1
20260510020906 10 49 8.0 12.9 0.00 0.00 0.00 81 1018.1
20260510020006 10 38 9.7 12.9 0.00 0.00 0.00 81 1017.9
20260510015406 10 46 9.7 12.9 0.00 0.00 0.00 81 1018.1
20260510014506 10 57 8.0 9.7 0.00 0.00 0.00 80 1018.2
20260510013606 10 35 8.0 12.9 0.00 0.00 0.00 80 1018.3
20260510012727 10 34 8.0 12.9 0.00 0.00 0.00 79 1018.4
20260510011827 10 28 8.0 11.3 0.00 0.00 0.00 78 1018.3
20260510010906 10 45 9.7 12.9 0.00 0.00 0.00 76 1018.1
20260510010006 10 51 8.0 11.3 0.00 0.00 0.00 75 1018.1
20260510005406 10 59 9.7 14.5 0.00 0.00 0.00 73 1018.2
20260510004506 11 29 9.7 14.5 0.00 0.00 0.00 71 1018.3
20260510003606 11 25 11.3 12.9 0.00 0.00 0.00 65 1018.3
20260510002706 11 47 8.0 11.3 0.00 0.00 0.00 61 1018.2
20260510001806 11 23 9.7 14.5 0.00 0.00 0.00 60 1018.3
20260510000906 11 34 11.3 20.9 0.00 0.00 0.00 57 1018.2
20260510000006 11 45 9.7 12.9 0.00 0.00 0.00 55 1018.2
20260509235427 11 50 9.7 12.9 0.00 0.00 0.00 55 1018.2
20260509234506 12 54 6.4 9.7 0.00 0.00 0.00 54 1018.2
20260509233606 12 51 8.0 11.3 0.00 0.00 0.00 54 1018.0
20260509232706 12 20 6.4 8.0 0.00 0.00 0.00 53 1018.0
20260509231806 12 24 8.0 14.5 0.00 0.00 0.00 53 1018.1
20260509230906 12 36 8.0 12.9 0.00 0.00 0.00 52 1018.1
20260509230006 12 60 4.8 8.0 0.00 0.00 0.00 51 1017.9
20260509225406 12 47 6.4 8.0 0.00 0.00 0.00 51 1017.9
20260509224506 12 35 6.4 8.0 0.00 0.00 0.00 50 1018.0
20260509223606 12 21 4.8 8.0 0.00 0.00 0.00 51 1017.8
20260509222706 12 46 3.2 6.4 0.00 0.00 0.00 50 1017.8
20260509221806 13 49 6.4 8.0 0.00 0.00 0.00 50 1017.9
20260509220906 13 45 4.8 8.0 0.00 0.00 0.00 50 1017.8
20260509220006 13 58 3.2 6.4 0.00 0.00 0.00 51 1017.9
20260509215406 13 91 3.2 6.4 0.00 0.00 0.00 52 1017.9
20260509214506 13 102 3.2 6.4 0.00 0.00 0.00 52 1018.0
20260509213606 13 103 3.2 4.8 0.00 0.00 0.00 52 1017.9
20260509212706 13 59 3.2 3.2 0.00 0.00 0.00 53 1017.8
20260509211806 14 47 3.2 3.2 0.00 0.00 0.00 51 1017.6
20260509210906 14 75 3.2 4.8 0.00 0.00 0.00 51 1017.5
20260509210006 14 64 3.2 6.4 0.00 0.00 0.00 50 1017.4
20260509205405 15 55 3.2 6.4 0.00 0.00 0.00 50 1017.5
20260509204527 15 64 3.2 6.4 0.00 0.00 0.00 48 1017.5
20260509203606 15 122 1.6 3.2 0.00 0.00 0.00 47 1017.3
20260509202706 15 128 3.2 4.8 0.00 0.00 0.00 46 1017.3
20260509201806 15 108 4.8 6.4 0.00 0.00 0.00 45 1017.2
20260509200906 16 121 3.2 6.4 0.00 0.00 0.00 44 1017.1
20260509200027 16 137 4.8 6.4 0.00 0.00 0.00 43 1016.9
20260509195406 16 150 4.8 9.7 0.00 0.00 0.00 42 1016.9
20260509194506 16 97 6.4 9.7 0.00 0.00 0.00 42 1016.7
20260509193627 16 133 4.8 9.7 0.00 0.00 0.00 42 1016.7
20260509192706 17 165 6.4 9.7 0.00 0.00 0.00 40 1016.6
20260509191805 17 102 6.4 8.0 0.00 0.00 0.00 40 1016.6
20260509190905 17 103 6.4 11.3 0.00 0.00 0.00 39 1016.5
20260509190006 17 113 8.0 11.3 0.00 0.00 0.00 39 1016.5
20260509185406 18 143 6.4 11.3 0.00 0.00 0.00 39 1016.6
20260509184506 18 102 6.4 12.9 0.00 0.00 0.00 39 1016.5
20260509183606 18 141 6.4 9.7 0.00 0.00 0.00 38 1016.4
20260509182705 19 124 8.0 8.0 0.00 0.00 0.00 36 1016.2
20260509181805 19 120 8.0 12.9 0.00 0.00 0.00 36 1016.3
20260509180906 19 122 9.7 12.9 0.00 0.00 0.00 35 1016.2
20260509180027 19 132 8.0 12.9 0.00 0.00 0.00 36 1016.2
20260509175406 19 125 6.4 12.9 0.00 0.00 0.00 37 1016.1
20260509174505 20 73 8.0 11.3 0.00 0.00 0.00 35 1016.1
20260509173605 20 138 9.7 16.1 0.00 0.00 0.00 34 1015.9
20260509172705 20 100 6.4 12.9 0.00 0.00 0.00 34 1015.8
20260509171805 21 125 6.4 14.5 0.00 0.00 0.00 33 1015.9
20260509170906 21 108 8.0 14.5 0.00 0.00 0.00 33 1016.1
20260509170006 21 122 8.0 11.3 0.00 0.00 0.00 33 1015.9
20260509165405 21 58 8.0 12.9 0.00 0.00 0.00 32 1015.9
20260509164506 21 53 9.7 12.9 0.00 0.00 0.00 32 1015.8
20260509163605 21 61 11.3 17.7 0.00 0.00 0.00 32 1015.8
20260509162705 21 82 9.7 17.7 0.00 0.00 0.00 31 1015.8